Wetterdaten: Dienstag, 31.01.2012
Datum Zeit Temp. Auen Feucht Auen Luftdruck Regen Richtung Richtung Windben
31.01.2012 00:00 -10,4 C 92 % 1024,4 hPa 0,0 mm W 269 1,6 km/h (1 Bft)
31.01.2012 00:05 -10,3 C 92 % 1024,4 hPa 0,0 mm W 269 1,6 km/h (1 Bft)
31.01.2012 00:10 -10,5 C 91 % 1024,4 hPa 0,0 mm W 269 0,0 km/h (0 Bft)
31.01.2012 00:15 -10,5 C 92 % 1024,4 hPa 0,0 mm W 269 0,0 km/h (0 Bft)
31.01.2012 00:16 -10,4 C 92 % 1024,4 hPa 0,0 mm N 0 0,0 km/h (0 Bft)
31.01.2012 00:20 -10,3 C 92 % 1024,3 hPa 0,0 mm W 269 0,0 km/h (0 Bft)
31.01.2012 00:25 -10,1 C 92 % 1024,3 hPa 0,0 mm W 269 0,0 km/h (0 Bft)
31.01.2012 00:30 -9,9 C 92 % 1024,3 hPa 0,0 mm W 269 1,6 km/h (1 Bft)
31.01.2012 00:35 -9,9 C 92 % 1024,3 hPa 0,0 mm W 269 0,0 km/h (0 Bft)
31.01.2012 00:40 -9,9 C 91 % 1024,2 hPa 0,0 mm W 269 0,0 km/h (0 Bft)
31.01.2012 00:45 -9,7 C 92 % 1024,1 hPa 0,0 mm W 269 0,0 km/h (0 Bft)
31.01.2012 00:50 -9,4 C 93 % 1024,1 hPa 0,0 mm W 269 1,6 km/h (1 Bft)
31.01.2012 00:55 -9,3 C 92 % 1024,1 hPa 0,0 mm W 269 1,6 km/h (1 Bft)
31.01.2012 01:00 -9,1 C 93 % 1024,1 hPa 0,0 mm W 269 1,6 km/h (1 Bft)
31.01.2012 01:05 -8,9 C 93 % 1024,0 hPa 0,0 mm W 269 1,6 km/h (1 Bft)
31.01.2012 01:10 -8,8 C 93 % 1024,0 hPa 0,0 mm W 269 1,6 km/h (1 Bft)
31.01.2012 01:15 -8,8 C 93 % 1023,9 hPa 0,0 mm W 269 0,0 km/h (0 Bft)
31.01.2012 01:20 -8,9 C 93 % 1023,9 hPa 0,0 mm W 269 0,0 km/h (0 Bft)
31.01.2012 01:25 -8,8 C 94 % 1023,9 hPa 0,0 mm W 269 0,0 km/h (0 Bft)
31.01.2012 01:30 -8,7 C 94 % 1023,8 hPa 0,0 mm W 269 0,0 km/h (0 Bft)
31.01.2012 01:35 -8,7 C 94 % 1023,8 hPa 0,0 mm W 269 0,0 km/h (0 Bft)
31.01.2012 01:40 -8,7 C 94 % 1023,7 hPa 0,0 mm W 269 1,6 km/h (1 Bft)
31.01.2012 01:45 -8,4 C 95 % 1023,8 hPa 0,0 mm W 269 1,6 km/h (1 Bft)
31.01.2012 01:50 -8,2 C 94 % 1023,7 hPa 0,0 mm W 269 1,6 km/h (1 Bft)
31.01.2012 01:55 -8,1 C 94 % 1023,7 hPa 0,0 mm W 269 1,6 km/h (1 Bft)
31.01.2012 02:00 -7,9 C 94 % 1023,7 hPa 0,0 mm W 269 0,0 km/h (0 Bft)
31.01.2012 02:05 -7,8 C 94 % 1023,7 hPa 0,0 mm W 269 0,0 km/h (0 Bft)
31.01.2012 02:10 -7,8 C 94 % 1023,7 hPa 0,0 mm W 269 0,0 km/h (0 Bft)
31.01.2012 02:15 -8,0 C 94 % 1023,6 hPa 0,0 mm W 269 0,0 km/h (0 Bft)
31.01.2012 02:20 -8,2 C 93 % 1023,5 hPa 0,0 mm W 269 0,0 km/h (0 Bft)
31.01.2012 02:25 -8,2 C 94 % 1023,5 hPa 0,0 mm W 269 0,0 km/h (0 Bft)
31.01.2012 02:30 -8,0 C 94 % 1023,5 hPa 0,0 mm W 269 0,0 km/h (0 Bft)
31.01.2012 02:35 -7,7 C 94 % 1023,4 hPa 0,0 mm W 269 0,0 km/h (0 Bft)
31.01.2012 02:40 -7,9 C 94 % 1023,4 hPa 0,0 mm W 269 0,0 km/h (0 Bft)
31.01.2012 02:45 -8,1 C 93 % 1023,3 hPa 0,0 mm W 269 0,0 km/h (0 Bft)
31.01.2012 02:50 -8,2 C 93 % 1023,2 hPa 0,0 mm W 269 0,0 km/h (0 Bft)
31.01.2012 02:55 -8,3 C 93 % 1023,1 hPa 0,0 mm W 269 0,0 km/h (0 Bft)
31.01.2012 03:00 -8,4 C 93 % 1023,1 hPa 0,0 mm W 270 0,0 km/h (0 Bft)
31.01.2012 03:05 -8,1 C 94 % 1023,0 hPa 0,0 mm O-SO 109 4,8 km/h (1 Bft)
31.01.2012 03:10 -7,8 C 94 % 1023,1 hPa 0,0 mm O-NO 71 3,2 km/h (1 Bft)
31.01.2012 03:15 -7,7 C 94 % 1023,0 hPa 0,0 mm O 85 1,6 km/h (1 Bft)
31.01.2012 03:20 -7,7 C 94 % 1022,9 hPa 0,0 mm O 86 3,2 km/h (1 Bft)
31.01.2012 03:25 -7,6 C 94 % 1023,0 hPa 0,0 mm O-SO 109 4,8 km/h (1 Bft)
31.01.2012 03:30 -7,4 C 94 % 1022,9 hPa 0,0 mm O-SO 117 4,8 km/h (1 Bft)
31.01.2012 03:35 -7,4 C 94 % 1022,8 hPa 0,0 mm O 89 3,2 km/h (1 Bft)
31.01.2012 03:40 -7,5 C 94 % 1022,8 hPa 0,0 mm O-NO 71 3,2 km/h (1 Bft)
31.01.2012 03:45 -7,6 C 94 % 1022,8 hPa 0,0 mm O-SO 111 3,2 km/h (1 Bft)
31.01.2012 03:50 -7,6 C 94 % 1022,8 hPa 0,0 mm O-SO 112 4,8 km/h (1 Bft)
31.01.2012 03:55 -7,6 C 94 % 1022,7 hPa 0,0 mm O-SO 121 3,2 km/h (1 Bft)
31.01.2012 04:00 -7,7 C 93 % 1022,8 hPa 0,0 mm O-SO 104 4,8 km/h (1 Bft)
31.01.2012 04:05 -7,7 C 93 % 1022,7 hPa 0,0 mm SO 130 3,2 km/h (1 Bft)
31.01.2012 04:10 -7,7 C 93 % 1022,6 hPa 0,0 mm S-SO 150 3,2 km/h (1 Bft)
31.01.2012 04:15 -7,8 C 93 % 1022,6 hPa 0,0 mm SO 133 1,6 km/h (1 Bft)
31.01.2012 04:20 -7,8 C 93 % 1022,6 hPa 0,0 mm SO 133 1,6 km/h (1 Bft)
31.01.2012 04:25 -7,9 C 93 % 1022,6 hPa 0,0 mm SO 133 1,6 km/h (1 Bft)
31.01.2012 04:30 -7,9 C 93 % 1022,5 hPa 0,0 mm SO 133 1,6 km/h (1 Bft)
31.01.2012 04:35 -7,8 C 94 % 1022,5 hPa 0,0 mm SO 133 1,6 km/h (1 Bft)
31.01.2012 04:40 -7,8 C 93 % 1022,4 hPa 0,0 mm SO 133 1,6 km/h (1 Bft)
31.01.2012 04:45 -7,8 C 93 % 1022,4 hPa 0,0 mm SO 133 3,2 km/h (1 Bft)
31.01.2012 04:50 -7,8 C 93 % 1022,4 hPa 0,0 mm SO 132 4,8 km/h (1 Bft)
31.01.2012 04:55 -7,8 C 93 % 1022,2 hPa 0,0 mm SO 132 0,0 km/h (0 Bft)
31.01.2012 05:00 -7,8 C 93 % 1022,2 hPa 0,0 mm SO 132 0,0 km/h (0 Bft)
31.01.2012 05:05 -7,8 C 93 % 1022,1 hPa 0,0 mm SO 132 1,6 km/h (1 Bft)
31.01.2012 05:10 -7,8 C 93 % 1022,1 hPa 0,0 mm SO 132 1,6 km/h (1 Bft)
31.01.2012 05:15 -7,9 C 93 % 1022,1 hPa 0,0 mm SO 132 3,2 km/h (1 Bft)
31.01.2012 05:20 -7,9 C 93 % 1022,0 hPa 0,0 mm SO 132 1,6 km/h (1 Bft)
31.01.2012 05:25 -7,9 C 93 % 1021,9 hPa 0,0 mm SO 132 3,2 km/h (1 Bft)
31.01.2012 05:30 -8,0 C 93 % 1021,8 hPa 0,0 mm O-SO 110 3,2 km/h (1 Bft)
31.01.2012 05:35 -8,2 C 93 % 1021,8 hPa 0,0 mm O-SO 111 1,6 km/h (1 Bft)
31.01.2012 05:40 -8,4 C 92 % 1021,8 hPa 0,0 mm O-SO 111 0,0 km/h (0 Bft)
31.01.2012 05:45 -8,4 C 93 % 1021,7 hPa 0,0 mm O-SO 111 0,0 km/h (0 Bft)
31.01.2012 05:50 -8,7 C 93 % 1021,7 hPa 0,0 mm O-SO 111 1,6 km/h (1 Bft)
31.01.2012 05:55 -8,7 C 92 % 1021,6 hPa 0,0 mm O-SO 111 1,6 km/h (1 Bft)
31.01.2012 06:00 -8,8 C 92 % 1021,6 hPa 0,0 mm O-SO 111 1,6 km/h (1 Bft)
31.01.2012 06:05 -8,8 C 93 % 1021,5 hPa 0,0 mm O-SO 111 3,2 km/h (1 Bft)
31.01.2012 06:10 -8,4 C 93 % 1021,5 hPa 0,0 mm O-SO 111 1,6 km/h (1 Bft)
31.01.2012 06:15 -8,3 C 93 % 1021,5 hPa 0,0 mm O-SO 111 3,2 km/h (1 Bft)
31.01.2012 06:20 -8,3 C 93 % 1021,5 hPa 0,0 mm O-SO 111 1,6 km/h (1 Bft)
31.01.2012 06:25 -8,3 C 93 % 1021,4 hPa 0,0 mm NO 45 4,8 km/h (1 Bft)
31.01.2012 06:30 -8,2 C 93 % 1021,4 hPa 0,0 mm O 82 4,8 km/h (1 Bft)
31.01.2012 06:35 -8,2 C 93 % 1021,4 hPa 0,0 mm O 83 3,2 km/h (1 Bft)
31.01.2012 06:40 -8,2 C 93 % 1021,2 hPa 0,0 mm O-SO 109 4,8 km/h (1 Bft)
31.01.2012 06:45 -8,3 C 92 % 1021,2 hPa 0,0 mm O-SO 109 4,8 km/h (1 Bft)
31.01.2012 06:50 -8,4 C 92 % 1021,2 hPa 0,0 mm O 100 3,2 km/h (1 Bft)
31.01.2012 06:55 -8,5 C 92 % 1021,1 hPa 0,0 mm O-SO 103 3,2 km/h (1 Bft)
31.01.2012 07:00 -8,9 C 91 % 1021,1 hPa 0,0 mm O-SO 102 1,6 km/h (1 Bft)
31.01.2012 07:05 -9,1 C 92 % 1021,0 hPa 0,0 mm O-NO 78 3,2 km/h (1 Bft)
31.01.2012 07:10 -9,6 C 90 % 1021,0 hPa 0,0 mm O 98 3,2 km/h (1 Bft)
31.01.2012 07:15 -9,6 C 91 % 1020,9 hPa 0,0 mm O 82 6,4 km/h (2 Bft)
31.01.2012 07:20 -9,6 C 92 % 1021,0 hPa 0,0 mm O-SO 107 4,8 km/h (1 Bft)
31.01.2012 07:25 -9,8 C 91 % 1020,9 hPa 0,0 mm O 94 4,8 km/h (1 Bft)
31.01.2012 07:30 -9,8 C 91 % 1021,0 hPa 0,0 mm NO 49 6,4 km/h (2 Bft)
31.01.2012 07:35 -9,8 C 92 % 1020,9 hPa 0,0 mm O-NO 58 4,8 km/h (1 Bft)
31.01.2012 07:40 -9,9 C 91 % 1020,8 hPa 0,0 mm O-NO 63 3,2 km/h (1 Bft)
31.01.2012 07:45 -9,9 C 92 % 1020,8 hPa 0,0 mm O-NO 76 3,2 km/h (1 Bft)
31.01.2012 07:50 -9,8 C 92 % 1020,9 hPa 0,0 mm O 81 3,2 km/h (1 Bft)
31.01.2012 07:55 -9,8 C 92 % 1020,8 hPa 0,0 mm NO 51 4,8 km/h (1 Bft)
31.01.2012 08:00 -9,6 C 92 % 1020,7 hPa 0,0 mm NO 49 3,2 km/h (1 Bft)
31.01.2012 08:05 -9,6 C 91 % 1020,8 hPa 0,0 mm O-NO 60 4,8 km/h (1 Bft)
31.01.2012 08:10 -9,4 C 92 % 1020,7 hPa 0,0 mm O-NO 78 9,7 km/h (2 Bft)
31.01.2012 08:15 -9,3 C 92 % 1020,7 hPa 0,0 mm O-NO 77 8,0 km/h (2 Bft)
31.01.2012 08:20 -9,6 C 91 % 1020,6 hPa 0,0 mm SO 141 9,7 km/h (2 Bft)
31.01.2012 08:25 -9,3 C 92 % 1020,6 hPa 0,0 mm O-NO 74 8,0 km/h (2 Bft)
31.01.2012 08:30 -9,3 C 91 % 1020,5 hPa 0,0 mm O-SO 102 9,7 km/h (2 Bft)
31.01.2012 08:35 -9,1 C 91 % 1020,5 hPa 0,0 mm O 79 9,7 km/h (2 Bft)
31.01.2012 08:40 -9,3 C 91 % 1020,5 hPa 0,0 mm O 93 6,4 km/h (2 Bft)
31.01.2012 08:45 -8,9 C 92 % 1020,3 hPa 0,0 mm O-NO 59 9,7 km/h (2 Bft)
31.01.2012 08:50 -8,6 C 91 % 1020,3 hPa 0,0 mm O 94 8,0 km/h (2 Bft)
31.01.2012 08:55 -8,3 C 91 % 1020,2 hPa 0,0 mm O-NO 77 8,0 km/h (2 Bft)
31.01.2012 09:00 -8,2 C 90 % 1020,2 hPa 0,0 mm O 82 8,0 km/h (2 Bft)
31.01.2012 09:05 -8,1 C 90 % 1020,1 hPa 0,0 mm NO 53 8,0 km/h (2 Bft)
31.01.2012 09:10 -7,9 C 90 % 1020,1 hPa 0,0 mm NO 49 6,4 km/h (2 Bft)
31.01.2012 09:15 -7,9 C 90 % 1020,0 hPa 0,0 mm S-SO 148 8,0 km/h (2 Bft)
31.01.2012 09:20 -7,7 C 90 % 1019,9 hPa 0,0 mm O 94 11,3 km/h (2 Bft)
31.01.2012 09:25 -7,3 C 89 % 1019,9 hPa 0,0 mm O 88 12,9 km/h (3 Bft)
31.01.2012 09:30 -7,2 C 88 % 1019,9 hPa 0,0 mm O-SO 105 12,9 km/h (3 Bft)
31.01.2012 09:35 -7,1 C 89 % 1019,8 hPa 0,0 mm O-SO 119 11,3 km/h (2 Bft)
31.01.2012 09:40 -6,8 C 88 % 1019,9 hPa 0,0 mm O 101 11,3 km/h (2 Bft)
31.01.2012 09:45 -6,8 C 88 % 1019,9 hPa 0,0 mm O-SO 115 17,7 km/h (3 Bft)
31.01.2012 09:50 -6,8 C 87 % 1019,8 hPa 0,0 mm O 92 14,5 km/h (3 Bft)
31.01.2012 09:55 -6,6 C 87 % 1019,7 hPa 0,0 mm O-SO 118 14,5 km/h (3 Bft)
31.01.2012 10:00 -6,6 C 87 % 1019,8 hPa 0,0 mm O-SO 113 16,1 km/h (3 Bft)
31.01.2012 10:05 -6,4 C 87 % 1019,6 hPa 0,0 mm O-SO 120 17,7 km/h (3 Bft)
31.01.2012 10:10 -6,2 C 86 % 1019,6 hPa 0,0 mm O-SO 113 16,1 km/h (3 Bft)
31.01.2012 10:15 -6,0 C 86 % 1019,5 hPa 0,0 mm O-SO 106 17,7 km/h (3 Bft)
31.01.2012 10:20 -6,0 C 85 % 1019,5 hPa 0,0 mm O-SO 114 22,5 km/h (4 Bft)
31.01.2012 10:25 -5,9 C 86 % 1019,5 hPa 0,0 mm O-SO 107 17,7 km/h (3 Bft)
31.01.2012 10:30 -5,7 C 86 % 1019,5 hPa 0,0 mm SO 125 16,1 km/h (3 Bft)
31.01.2012 10:35 -5,7 C 85 % 1019,5 hPa 0,0 mm O 98 20,9 km/h (4 Bft)
31.01.2012 10:40 -5,7 C 84 % 1019,5 hPa 0,0 mm O-SO 116 16,1 km/h (3 Bft)
31.01.2012 10:45 -5,7 C 84 % 1019,5 hPa 0,0 mm O 90 16,1 km/h (3 Bft)
31.01.2012 10:50 -5,7 C 84 % 1019,5 hPa 0,0 mm O-NO 74 16,1 km/h (3 Bft)
31.01.2012 10:55 -5,6 C 84 % 1019,4 hPa 0,0 mm O 99 14,5 km/h (3 Bft)
31.01.2012 11:00 -5,6 C 83 % 1019,4 hPa 0,0 mm O-SO 111 19,3 km/h (3 Bft)
31.01.2012 11:05 -5,7 C 84 % 1019,4 hPa 0,0 mm SO 127 17,7 km/h (3 Bft)
31.01.2012 11:10 -5,6 C 84 % 1019,4 hPa 0,0 mm O-SO 112 14,5 km/h (3 Bft)
31.01.2012 11:15 -5,4 C 83 % 1019,3 hPa 0,0 mm O 80 17,7 km/h (3 Bft)
31.01.2012 11:20 -5,4 C 83 % 1019,3 hPa 0,0 mm O-SO 110 17,7 km/h (3 Bft)
31.01.2012 11:25 -5,3 C 83 % 1019,2 hPa 0,0 mm O-SO 123 16,1 km/h (3 Bft)
31.01.2012 11:30 -5,2 C 84 % 1019,1 hPa 0,0 mm O-SO 107 17,7 km/h (3 Bft)
31.01.2012 11:35 -4,8 C 84 % 1019,0 hPa 0,0 mm O-SO 104 16,1 km/h (3 Bft)
31.01.2012 11:40 -4,6 C 82 % 1018,9 hPa 0,0 mm O-SO 123 16,1 km/h (3 Bft)
31.01.2012 11:45 -4,4 C 82 % 1018,9 hPa 0,0 mm O 83 17,7 km/h (3 Bft)
31.01.2012 11:50 -4,3 C 81 % 1018,9 hPa 0,0 mm O-SO 111 17,7 km/h (3 Bft)
31.01.2012 11:55 -4,2 C 81 % 1018,8 hPa 0,0 mm O-SO 122 17,7 km/h (3 Bft)
31.01.2012 12:00 -4,2 C 81 % 1018,6 hPa 0,0 mm SO 124 16,1 km/h (3 Bft)
31.01.2012 12:05 -4,1 C 80 % 1018,6 hPa 0,0 mm O-SO 117 17,7 km/h (3 Bft)
31.01.2012 12:10 -4,0 C 80 % 1018,6 hPa 0,0 mm O-SO 109 14,5 km/h (3 Bft)
31.01.2012 12:15 -3,9 C 79 % 1018,6 hPa 0,0 mm O 89 14,5 km/h (3 Bft)
31.01.2012 12:20 -3,9 C 79 % 1018,5 hPa 0,0 mm SO 130 16,1 km/h (3 Bft)
31.01.2012 12:25 -4,1 C 79 % 1018,5 hPa 0,0 mm O 99 14,5 km/h (3 Bft)
31.01.2012 12:30 -4,2 C 80 % 1018,5 hPa 0,0 mm O-SO 108 14,5 km/h (3 Bft)
31.01.2012 12:35 -4,1 C 80 % 1018,5 hPa 0,0 mm SO 143 14,5 km/h (3 Bft)
31.01.2012 12:40 -3,9 C 79 % 1018,5 hPa 0,0 mm O 101 14,5 km/h (3 Bft)
31.01.2012 12:45 -3,9 C 79 % 1018,4 hPa 0,0 mm O-SO 112 14,5 km/h (3 Bft)
31.01.2012 12:50 -4,0 C 80 % 1018,4 hPa 0,0 mm SO 130 16,1 km/h (3 Bft)
31.01.2012 12:55 -4,2 C 80 % 1018,3 hPa 0,0 mm SO 139 12,9 km/h (3 Bft)
31.01.2012 13:00 -4,1 C 80 % 1018,5 hPa 0,0 mm SO 124 14,5 km/h (3 Bft)
31.01.2012 13:05 -4,2 C 79 % 1018,4 hPa 0,0 mm O-SO 122 11,3 km/h (2 Bft)
31.01.2012 13:10 -4,2 C 79 % 1018,5 hPa 0,0 mm O-SO 103 11,3 km/h (2 Bft)
31.01.2012 13:15 -4,2 C 80 % 1018,5 hPa 0,0 mm O-SO 119 11,3 km/h (2 Bft)
31.01.2012 13:20 -4,0 C 80 % 1018,4 hPa 0,0 mm O-SO 113 12,9 km/h (3 Bft)
31.01.2012 13:25 -4,0 C 80 % 1018,5 hPa 0,0 mm SO 144 9,7 km/h (2 Bft)
31.01.2012 13:30 -3,8 C 79 % 1018,5 hPa 0,0 mm SO 126 11,3 km/h (2 Bft)
31.01.2012 13:35 -3,7 C 78 % 1018,4 hPa 0,0 mm SO 126 12,9 km/h (3 Bft)
31.01.2012 13:40 -3,4 C 78 % 1018,4 hPa 0,0 mm SO 130 12,9 km/h (3 Bft)
31.01.2012 13:45 -3,3 C 79 % 1018,4 hPa 0,0 mm S-SO 148 12,9 km/h (3 Bft)
31.01.2012 13:50 -3,1 C 79 % 1018,3 hPa 0,0 mm O-SO 109 12,9 km/h (3 Bft)
31.01.2012 13:55 -2,8 C 76 % 1018,3 hPa 0,0 mm SO 146 12,9 km/h (3 Bft)
31.01.2012 14:00 -2,8 C 76 % 1018,3 hPa 0,0 mm SO 127 12,9 km/h (3 Bft)
31.01.2012 14:05 -2,8 C 75 % 1018,3 hPa 0,0 mm SO 144 14,5 km/h (3 Bft)
31.01.2012 14:10 -2,8 C 76 % 1018,3 hPa 0,0 mm O-SO 121 12,9 km/h (3 Bft)
31.01.2012 14:15 -2,8 C 78 % 1018,2 hPa 0,0 mm SO 146 12,9 km/h (3 Bft)
31.01.2012 14:20 -2,7 C 77 % 1018,2 hPa 0,0 mm O-SO 108 12,9 km/h (3 Bft)
31.01.2012 14:25 -2,7 C 76 % 1018,2 hPa 0,0 mm SO 126 16,1 km/h (3 Bft)
31.01.2012 14:30 -2,7 C 78 % 1018,1 hPa 0,0 mm SO 140 11,3 km/h (2 Bft)
31.01.2012 14:35 -2,7 C 76 % 1018,2 hPa 0,0 mm SO 138 12,9 km/h (3 Bft)
31.01.2012 14:40 -2,7 C 76 % 1018,3 hPa 0,0 mm SO 144 12,9 km/h (3 Bft)
31.01.2012 14:45 -2,6 C 76 % 1018,2 hPa 0,0 mm O 99 14,5 km/h (3 Bft)
31.01.2012 14:50 -2,6 C 76 % 1018,2 hPa 0,0 mm SO 132 11,3 km/h (2 Bft)
31.01.2012 14:55 -2,6 C 75 % 1018,3 hPa 0,0 mm O-SO 120 14,5 km/h (3 Bft)
31.01.2012 15:00 -2,6 C 76 % 1018,2 hPa 0,0 mm O-SO 105 11,3 km/h (2 Bft)
31.01.2012 15:05 -2,6 C 76 % 1018,2 hPa 0,0 mm S-SO 148 11,3 km/h (2 Bft)
31.01.2012 15:10 -2,5 C 75 % 1018,1 hPa 0,0 mm SO 137 12,9 km/h (3 Bft)
31.01.2012 15:15 -2,6 C 76 % 1018,2 hPa 0,0 mm S 178 12,9 km/h (3 Bft)
31.01.2012 15:20 -2,6 C 76 % 1018,0 hPa 0,0 mm O 99 11,3 km/h (2 Bft)
31.01.2012 15:25 -2,4 C 74 % 1018,1 hPa 0,0 mm SO 128 9,7 km/h (2 Bft)
31.01.2012 15:30 -2,3 C 73 % 1018,0 hPa 0,0 mm O-SO 105 11,3 km/h (2 Bft)
31.01.2012 15:35 -2,3 C 73 % 1018,1 hPa 0,0 mm SO 126 11,3 km/h (2 Bft)
31.01.2012 15:40 -2,4 C 73 % 1018,2 hPa 0,0 mm O-SO 119 9,7 km/h (2 Bft)
31.01.2012 15:45 -2,6 C 73 % 1018,1 hPa 0,0 mm O-SO 122 11,3 km/h (2 Bft)
31.01.2012 15:50 -2,5 C 72 % 1018,1 hPa 0,0 mm O-SO 115 11,3 km/h (2 Bft)
31.01.2012 15:55 -2,5 C 73 % 1018,2 hPa 0,0 mm SO 144 12,9 km/h (3 Bft)
31.01.2012 16:00 -2,7 C 75 % 1018,2 hPa 0,0 mm SO 140 9,7 km/h (2 Bft)
31.01.2012 16:05 -2,6 C 74 % 1018,3 hPa 0,0 mm SO 140 14,5 km/h (3 Bft)
31.01.2012 16:10 -2,7 C 74 % 1018,2 hPa 0,0 mm O 100 8,0 km/h (2 Bft)
31.01.2012 16:15 -2,6 C 74 % 1018,3 hPa 0,0 mm SO 144 8,0 km/h (2 Bft)
31.01.2012 16:20 -2,4 C 73 % 1018,3 hPa 0,0 mm O-SO 109 11,3 km/h (2 Bft)
31.01.2012 16:25 -2,7 C 74 % 1018,3 hPa 0,0 mm SO 146 11,3 km/h (2 Bft)
31.01.2012 16:30 -2,8 C 73 % 1018,4 hPa 0,0 mm O-SO 109 9,7 km/h (2 Bft)
31.01.2012 16:35 -2,7 C 73 % 1018,4 hPa 0,0 mm O-SO 119 14,5 km/h (3 Bft)
31.01.2012 16:40 -2,9 C 74 % 1018,5 hPa 0,0 mm O-SO 118 14,5 km/h (3 Bft)
31.01.2012 16:45 -2,9 C 72 % 1018,4 hPa 0,0 mm SO 127 14,5 km/h (3 Bft)
31.01.2012 16:50 -3,2 C 74 % 1018,5 hPa 0,0 mm O 98 9,7 km/h (2 Bft)
31.01.2012 16:55 -3,4 C 73 % 1018,6 hPa 0,0 mm O-SO 109 9,7 km/h (2 Bft)
31.01.2012 17:00 -3,6 C 76 % 1018,6 hPa 0,0 mm O-SO 116 12,9 km/h (3 Bft)
31.01.2012 17:05 -3,6 C 76 % 1018,7 hPa 0,0 mm O-SO 103 8,0 km/h (2 Bft)
31.01.2012 17:10 -3,8 C 75 % 1018,8 hPa 0,0 mm O 88 8,0 km/h (2 Bft)
31.01.2012 17:15 -3,8 C 75 % 1018,7 hPa 0,0 mm S-SO 155 11,3 km/h (2 Bft)
31.01.2012 17:20 -3,8 C 77 % 1018,8 hPa 0,0 mm SO 146 8,0 km/h (2 Bft)
31.01.2012 17:25 -3,9 C 77 % 1018,8 hPa 0,0 mm SO 146 11,3 km/h (2 Bft)
31.01.2012 17:30 -3,9 C 76 % 1018,8 hPa 0,0 mm SO 145 9,7 km/h (2 Bft)
31.01.2012 17:35 -4,0 C 77 % 1018,9 hPa 0,0 mm S-SO 155 9,7 km/h (2 Bft)
31.01.2012 17:40 -3,8 C 75 % 1018,9 hPa 0,0 mm SO 146 11,3 km/h (2 Bft)
31.01.2012 17:45 -3,9 C 74 % 1018,9 hPa 0,0 mm S-SO 153 11,3 km/h (2 Bft)
31.01.2012 17:50 -4,1 C 75 % 1018,9 hPa 0,0 mm O-SO 117 9,7 km/h (2 Bft)
31.01.2012 17:55 -3,9 C 74 % 1019,0 hPa 0,0 mm SO 128 11,3 km/h (2 Bft)
31.01.2012 18:00 -4,0 C 74 % 1019,0 hPa 0,0 mm O-SO 111 11,3 km/h (2 Bft)
31.01.2012 18:05 -3,9 C 73 % 1019,0 hPa 0,0 mm SO 126 9,7 km/h (2 Bft)
31.01.2012 18:10 -3,9 C 72 % 1019,1 hPa 0,0 mm SO 126 11,3 km/h (2 Bft)
31.01.2012 18:15 -4,2 C 73 % 1019,1 hPa 0,0 mm SO 135 9,7 km/h (2 Bft)
31.01.2012 18:20 -4,1 C 73 % 1019,2 hPa 0,0 mm O 98 12,9 km/h (3 Bft)
31.01.2012 18:25 -4,3 C 74 % 1019,1 hPa 0,0 mm O 92 8,0 km/h (2 Bft)
31.01.2012 18:30 -4,6 C 76 % 1019,2 hPa 0,0 mm O-SO 113 9,7 km/h (2 Bft)
31.01.2012 18:35 -4,7 C 76 % 1019,2 hPa 0,0 mm O-SO 123 11,3 km/h (2 Bft)
31.01.2012 18:40 -4,4 C 76 % 1019,1 hPa 0,0 mm SO 140 14,5 km/h (3 Bft)
31.01.2012 18:45 -4,4 C 75 % 1019,2 hPa 0,0 mm S-SO 147 14,5 km/h (3 Bft)
31.01.2012 18:50 -4,6 C 76 % 1019,1 hPa 0,0 mm SO 142 12,9 km/h (3 Bft)
31.01.2012 18:55 -4,7 C 77 % 1019,2 hPa 0,0 mm SO 146 12,9 km/h (3 Bft)
31.01.2012 19:00 -4,8 C 77 % 1019,2 hPa 0,0 mm SO 145 9,7 km/h (2 Bft)
31.01.2012 19:05 -4,8 C 76 % 1019,2 hPa 0,0 mm SO 130 9,7 km/h (2 Bft)
31.01.2012 19:10 -5,4 C 78 % 1019,3 hPa 0,0 mm S-SO 147 8,0 km/h (2 Bft)
31.01.2012 19:15 -5,4 C 79 % 1019,2 hPa 0,0 mm SO 142 11,3 km/h (2 Bft)
31.01.2012 19:20 -5,4 C 79 % 1019,2 hPa 0,0 mm SO 124 9,7 km/h (2 Bft)
31.01.2012 19:25 -5,3 C 78 % 1019,2 hPa 0,0 mm S-SO 165 11,3 km/h (2 Bft)
31.01.2012 19:30 -5,1 C 78 % 1019,3 hPa 0,0 mm SO 142 11,3 km/h (2 Bft)
31.01.2012 19:35 -5,2 C 78 % 1019,2 hPa 0,0 mm SO 131 11,3 km/h (2 Bft)
31.01.2012 19:40 -5,3 C 78 % 1019,3 hPa 0,0 mm O-SO 121 11,3 km/h (2 Bft)
31.01.2012 19:45 -5,9 C 80 % 1019,4 hPa 0,0 mm O 98 8,0 km/h (2 Bft)
31.01.2012 19:50 -5,8 C 80 % 1019,4 hPa 0,0 mm SO 138 6,4 km/h (2 Bft)
31.01.2012 19:55 -5,7 C 80 % 1019,4 hPa 0,0 mm SO 124 8,0 km/h (2 Bft)
31.01.2012 20:00 -5,7 C 80 % 1019,5 hPa 0,0 mm SO 128 9,7 km/h (2 Bft)
31.01.2012 20:05 -5,6 C 79 % 1019,6 hPa 0,0 mm O-SO 117 8,0 km/h (2 Bft)
31.01.2012 20:10 -5,7 C 79 % 1019,6 hPa 0,0 mm S-SO 149 8,0 km/h (2 Bft)
31.01.2012 20:15 -5,8 C 80 % 1019,7 hPa 0,0 mm O-SO 102 9,7 km/h (2 Bft)
31.01.2012 20:20 -5,9 C 80 % 1019,7 hPa 0,0 mm O 96 9,7 km/h (2 Bft)
31.01.2012 20:25 -5,8 C 80 % 1019,7 hPa 0,0 mm SO 135 8,0 km/h (2 Bft)
31.01.2012 20:30 -5,6 C 79 % 1019,8 hPa 0,0 mm SO 125 16,1 km/h (3 Bft)
31.01.2012 20:35 -5,4 C 79 % 1019,8 hPa 0,0 mm O 99 9,7 km/h (2 Bft)
31.01.2012 20:40 -5,4 C 79 % 1019,9 hPa 0,0 mm O-SO 116 9,7 km/h (2 Bft)
31.01.2012 20:45 -5,4 C 78 % 1019,9 hPa 0,0 mm SO 127 11,3 km/h (2 Bft)
31.01.2012 20:50 -5,4 C 78 % 1019,9 hPa 0,0 mm SO 131 12,9 km/h (3 Bft)
31.01.2012 20:55 -5,5 C 79 % 1019,9 hPa 0,0 mm O-SO 119 12,9 km/h (3 Bft)
31.01.2012 21:00 -5,6 C 80 % 1020,0 hPa 0,0 mm O-SO 107 11,3 km/h (2 Bft)
31.01.2012 21:05 -5,6 C 80 % 1020,1 hPa 0,0 mm O-SO 104 12,9 km/h (3 Bft)
31.01.2012 21:10 -5,6 C 81 % 1020,1 hPa 0,0 mm O-SO 102 11,3 km/h (2 Bft)
31.01.2012 21:15 -5,6 C 81 % 1020,1 hPa 0,0 mm O 90 14,5 km/h (3 Bft)
31.01.2012 21:20 -5,7 C 81 % 1020,2 hPa 0,0 mm O-SO 114 12,9 km/h (3 Bft)
31.01.2012 21:25 -5,7 C 81 % 1020,2 hPa 0,0 mm O 90 12,9 km/h (3 Bft)
31.01.2012 21:30 -5,6 C 80 % 1020,2 hPa 0,0 mm O-SO 113 16,1 km/h (3 Bft)
31.01.2012 21:35 -5,6 C 81 % 1020,3 hPa 0,0 mm O 85 14,5 km/h (3 Bft)
31.01.2012 21:40 -5,6 C 80 % 1020,3 hPa 0,0 mm SO 126 14,5 km/h (3 Bft)
31.01.2012 21:45 -5,6 C 80 % 1020,3 hPa 0,0 mm O-SO 104 14,5 km/h (3 Bft)
31.01.2012 21:50 -5,5 C 79 % 1020,3 hPa 0,0 mm O-SO 109 17,7 km/h (3 Bft)
31.01.2012 21:55 -5,6 C 79 % 1020,3 hPa 0,0 mm O-SO 110 14,5 km/h (3 Bft)
31.01.2012 22:00 -5,6 C 79 % 1020,4 hPa 0,0 mm O-SO 102 16,1 km/h (3 Bft)
31.01.2012 22:05 -5,6 C 79 % 1020,5 hPa 0,0 mm O 96 14,5 km/h (3 Bft)
31.01.2012 22:10 -5,7 C 79 % 1020,6 hPa 0,0 mm O 97 14,5 km/h (3 Bft)
31.01.2012 22:15 -5,7 C 79 % 1020,6 hPa 0,0 mm O 96 14,5 km/h (3 Bft)
31.01.2012 22:20 -5,8 C 80 % 1020,5 hPa 0,0 mm O-SO 106 12,9 km/h (3 Bft)
31.01.2012 22:25 -5,9 C 80 % 1020,6 hPa 0,0 mm O-SO 103 14,5 km/h (3 Bft)
31.01.2012 22:30 -6,0 C 80 % 1020,5 hPa 0,0 mm O-SO 103 12,9 km/h (3 Bft)
31.01.2012 22:35 -6,1 C 80 % 1020,6 hPa 0,0 mm O 94 12,9 km/h (3 Bft)
31.01.2012 22:40 -6,2 C 79 % 1020,6 hPa 0,0 mm O 101 11,3 km/h (2 Bft)
31.01.2012 22:45 -6,2 C 80 % 1020,6 hPa 0,0 mm O-SO 113 12,9 km/h (3 Bft)
31.01.2012 22:50 -6,2 C 80 % 1020,7 hPa 0,0 mm O-SO 113 12,9 km/h (3 Bft)
31.01.2012 22:55 -6,3 C 79 % 1020,7 hPa 0,0 mm O-SO 105 12,9 km/h (3 Bft)
31.01.2012 23:00 -6,5 C 80 % 1020,6 hPa 0,0 mm O-SO 117 11,3 km/h (2 Bft)
31.01.2012 23:05 -6,6 C 80 % 1020,7 hPa 0,0 mm O-SO 106 11,3 km/h (2 Bft)
31.01.2012 23:10 -6,8 C 81 % 1020,7 hPa 0,0 mm O-SO 116 9,7 km/h (2 Bft)
31.01.2012 23:15 -6,7 C 81 % 1020,7 hPa 0,0 mm SO 124 8,0 km/h (2 Bft)
31.01.2012 23:20 -6,7 C 81 % 1020,7 hPa 0,0 mm O-SO 102 8,0 km/h (2 Bft)
31.01.2012 23:25 -6,7 C 81 % 1020,6 hPa 0,0 mm O-SO 123 11,3 km/h (2 Bft)
31.01.2012 23:30 -6,7 C 81 % 1020,7 hPa 0,0 mm O-SO 123 12,9 km/h (3 Bft)
31.01.2012 23:35 -6,7 C 82 % 1020,7 hPa 0,0 mm O 85 14,5 km/h (3 Bft)
31.01.2012 23:40 -6,6 C 82 % 1020,7 hPa 0,0 mm SO 126 14,5 km/h (3 Bft)
31.01.2012 23:45 -6,6 C 82 % 1020,7 hPa 0,0 mm O-SO 105 11,3 km/h (2 Bft)
31.01.2012 23:50 -6,6 C 82 % 1020,7 hPa 0,0 mm O-SO 119 12,9 km/h (3 Bft)
31.01.2012 23:55 -6,7 C 83 % 1020,8 hPa 0,0 mm O-SO 113 11,3 km/h (2 Bft)
_ Min-Zeit 00:10 15:50 15:20 - - - 00:10
Minimum _ -10,5 C 72 % 1018,0 hPa - - - 0,0 km/h (0 Bft)
_ Max-Zeit 15:30 01:45 00:00 00:00 - - 10:20
Maximum _ -2,3 C 95 % 1024,4 hPa 0,0 mm - - 22,5 km/h
O (4 Bft)
Durchschnitt _ -6,2 C 84 % 1020,4 hPa #0,0 mm O-SO - 8,9 km/h (2 Bft)